TimeEDT,TemperatureF,Dew PointF,Humidity,Sea Level PressureIn,VisibilityMPH,Wind Direction,Wind SpeedMPH,Gust SpeedMPH,PrecipitationIn,Events,Conditions,WindDirDegrees,DateUTC
12:51 AM,61.0,42.1,50,30.03,10.0,East,10.4,-,N/A,,Scattered Clouds,100,2013-05-05 04:51:00
1:51 AM,60.1,42.1,51,30.04,10.0,ESE,8.1,-,N/A,,Clear,120,2013-05-05 05:51:00
2:51 AM,57.9,42.1,56,30.03,10.0,ESE,8.1,-,N/A,,Clear,110,2013-05-05 06:51:00
3:51 AM,55.9,43.0,62,30.03,10.0,ESE,6.9,-,N/A,,Clear,120,2013-05-05 07:51:00
4:51 AM,54.0,43.0,66,30.03,10.0,ESE,3.5,-,N/A,,Clear,110,2013-05-05 08:51:00
5:51 AM,53.1,43.0,69,30.02,10.0,East,8.1,-,N/A,,Partly Cloudy,100,2013-05-05 09:51:00
6:51 AM,54.0,42.1,64,30.02,10.0,East,8.1,-,N/A,,Scattered Clouds,90,2013-05-05 10:51:00
7:51 AM,57.0,42.1,57,30.02,10.0,East,10.4,-,N/A,,Mostly Cloudy,90,2013-05-05 11:51:00
8:51 AM,59.0,42.1,53,30.03,10.0,East,11.5,19.6,N/A,,Mostly Cloudy,100,2013-05-05 12:51:00
9:51 AM,62.1,36.0,38,30.02,10.0,ESE,12.7,-,N/A,,Mostly Cloudy,110,2013-05-05 13:51:00
10:51 AM,63.0,37.0,38,30.01,10.0,East,9.2,-,N/A,,Mostly Cloudy,100,2013-05-05 14:51:00
11:51 AM,66.0,39.9,38,30.00,10.0,ENE,8.1,-,N/A,,Mostly Cloudy,70,2013-05-05 15:51:00
12:51 PM,70.0,39.0,32,29.99,10.0,ESE,9.2,-,N/A,,Mostly Cloudy,110,2013-05-05 16:51:00
1:51 PM,70.0,39.0,32,29.99,10.0,East,8.1,-,N/A,,Mostly Cloudy,90,2013-05-05 17:51:00
2:51 PM,72.0,39.9,31,29.97,10.0,ESE,3.5,-,N/A,,Mostly Cloudy,110,2013-05-05 18:51:00
3:51 PM,72.0,39.9,31,29.96,10.0,East,6.9,-,N/A,,Mostly Cloudy,90,2013-05-05 19:51:00
4:51 PM,71.1,39.9,32,29.94,10.0,East,11.5,-,N/A,,Overcast,80,2013-05-05 20:51:00
5:51 PM,71.6,37.4,29,29.94,10.0,East,10.4,-,N/A,,Overcast,80,2013-05-05 21:51:00
6:51 PM,72.0,36.0,27,29.92,10.0,ENE,6.9,-,N/A,,Overcast,60,2013-05-05 22:51:00
7:51 PM,70.0,36.0,29,29.92,10.0,NE,5.8,-,N/A,,Overcast,50,2013-05-05 23:51:00
8:51 PM,68.0,35.1,30,29.93,10.0,ENE,6.9,-,N/A,,Overcast,70,2013-05-06 00:51:00
9:51 PM,66.0,33.1,29,29.95,10.0,East,8.1,-,N/A,,Overcast,80,2013-05-06 01:51:00
10:51 PM,66.9,28.0,23,29.94,10.0,East,12.7,-,N/A,,Overcast,80,2013-05-06 02:51:00
11:51 PM,64.9,28.9,26,29.95,10.0,ESE,5.8,-,N/A,,Overcast,110,2013-05-06 03:51:00